星链-34312 (STARLINK-34312)

导读 | 豆包AI

STARLINK-34312是美国星链星座的卫星,于2025年6月28日发射,星链项目由SpaceX主导,旨在构建全球覆盖的卫星互联网星座,该卫星继承了星链系列卫星的低轨通信技术特点,将为全球偏远地区、海陆空移动场景提供低延迟宽带互联网接入服务,进一步扩充星链星座的服务覆盖容量与网络稳定性。

基本信息
目录编号:
64711
目录名称:
STARLINK-34312
国际标识:
2025-142R
轨道中心:
EARTH
卫星名称:
星链-34312
卫星全名:
星链-34312 (STARLINK-34312)
卫星状态:
在轨 (已飞行259 天)
发射日期:
2025-06-28 UTC
国别 :
美国 (US)
星等 :
--
轨道信息
数据来源 国际轨道数据
星历时间: 2026-03-14T07:29:15+0800
16小时前
查看轨道信息
半长轴: 6950.173km
偏心率: 0.0002408
轨道倾角: 70.001°
近地点辐角 271.202°
升交点赤经 303.620°
平近点角 88.887°
近地点: 570.362km
远地点: 573.71km
周期: 96.107分钟
每日圈数: 14.983367
详细信息
固有亮度:
5
最大亮度:
2.5
卫星平台:
Starlink V1.0
覆盖范围:
全球
运营商:
太空探索技术公司
运营商所在国:
美国
制造商(研发单位):
太空探索技术公司
制造商所在国:
美国
使用方式:
暂无
卫星简介
Starlink 计划是 SpaceX 推出的全球卫星互联网项目,通过发射低轨道卫星,为全球尤其是偏远地区提供高速、低延迟的互联网服务。自 2019 年起,Starlink 已部署数千颗卫星,旨在缩小全球数字鸿沟,推动互联网普及。该项目还为军事、航空等行业提供通信支持,带来广泛经济效益。
2D轨道图
3D轨道图
轨道高度分析图
轨道倾角分析图
轨道综合分析图
查看轨道综合分析图